Find Starlink 30785

NORAD ID: 58191 Int'l Des: 2023-167 Owner: SPXS Country: US Constellation: starlink operational
LEOCIRCULAR

实时位置

正在加载3D地球...

关于 Starlink 30785

正在加载描述...

即将过境

Passes for default location (London). Set your location on the main map for personalized predictions.

高度历史

Loading altitude history...

两行轨道根数

1 58191U 23167S 26124.46507884 .00001154 00000-0 51435-4 0 9993
2 58191 42.9989 188.5389 0000698 287.7166 72.3610 15.27579715139516
Epoch: May 4, 2026 • Age: 20 hours

当前状态

高度 489.9 km
速度 7.62 km/s
星下点 -27.23°S, 69.61°E
发射日期 Oct 30, 2023
运行时间 2.5 years
类型 internet

技术详情

分类 Payload
质量 730.00 kg
干质量 700.00 kg
总质量 730.00 kg
长度 0.30 m
直径 4.10 m
跨度 29.00 m
形状 Box + pan
制造商 SPXS
平台类型 Starlink V2M
阶段状态 In Orbit
所有者/国家 SPXS/US

Most Searched